Advanced Flyers

Silicon Valley's Premier Flying Club, Palo Alto

Call (650) 494-1646

BestTraining Fleet
Club Facilities

24
Hour
Aircraft Access
Online Scheduling
QualityFlight Instruction
Member Services

EasyMembership Application
Credit-card Billing

Large Fleet of Cessna Aircraft

Learn to fly using the world's favorite airplanes
Cessna Skyhawk 172SP Our Cessna 172SP Skyhawks can carry four people and include GPS navigation, autopilot, dual radios, color map displays and more. We have analog gauge and G1000 avionics equipped models.

Affordable Trainers

We have options to fit everyone's budget
Piper Warrior For student pilots and the lowest-cost training, we have very affordable Piper Warrior and Archer four-seat aircraft, starting at only $99/hour !

Save Time with Simulation

Experience realistic scenarios faster and cheaper

Redbird FMX-1000 Simulator
Redbird FMX Flight Simulator Screens

Our Redbird FMX simulator is ideal for introductory lessons, instrument training or familiarizing yourself with analog instrument or Garmin G1000, G530, G430 avionics operation. With its motion platform and eight screens, you'll be immersed in the illusion of flight. Simulator videos can be seen here and here.

Emergency maneuvers can be practiced safely, conveniently and paused for review and discussion with an instructor.

Glass Cockpit Training

Step into the future of aviation technology

Garmin G1000
G1000 Cabin

Most aircaft produced today have Garmin G1000 instrumentation as a standard feature. The system's dual 10.5 inch screens reveal airspeed, altitude, attitude, heading, navigation courses and communication channels, engine parameters, zoomable maps, airport diagrams, terrain, obstacles and more.

Using our G1000 equipped aircraft or our Redbird FMX simulator, you can safely and easily learn this new system in a short time.

KPAO 010247Z 31010KT 10SM SKC 22/13 A2981 KSQL 010247Z 33005KT 10SM SKC 20/12 A2982 KHAF 010315Z AUTO 20004KT M1/4SM FG OVC002 12/12 A2988 RMK AO2 KLVK 010253Z 25009KT 10SM CLR 28/06 A2979 RMK AO2 SLP085 T02830056 53004